Ely, NV

2:07 AM PDT on March 24, 2017 (GMT -0700)
Ely

Weather History for KELY - June, 2013

Change the Weather History Date:

Tuesday, June 4, 2013

  Actual Average Record
Temperature  
Mean Temperature 62 °F 56 °F  
Max Temperature 85 °F 74 °F 89 °F (2000)
Min Temperature 39 °F 38 °F 24 °F (2001)
Degree Days  
Heating Degree Days 3 9  
Month to date heating degree days 13 39  
Since 1 June heating degree days 13 39  
Since 1 July heating degree days 7086 7386  
Cooling Degree Days 0 0  
Month to date cooling degree days 1 0  
Year to date cooling degree days 1 1  
Since 1 June cooling degree days 1 0  
Growing Degree Days 12 (Base 50)    
Moisture  
Dew Point 22 °F    
Average Humidity 30    
Maximum Humidity 51    
Minimum Humidity 9    
Precipitation  
Precipitation 0.00 in 0.03 in 1.16 in (1983)
Month to date precipitation 0.00 0.13  
Year to date precipitation 3.11 4.56  
Snow  
Snow 0.00 in 0.00 in T in (2008)
Month to date snowfall 0.0 0.0  
Since 1 June snowfall 0.0 0.0  
Since 1 July snowfall 65.0 50.7  
Snow Depth 0.00 in    
Sea Level Pressure  
Sea Level Pressure 29.83 in    
Wind  
Wind Speed - (North)    
Max Wind Speed -    
Max Gust Speed -    
Visibility 10 miles    
Events      
T = Trace of Precipitation, MM = Missing Value Source: NWS Daily Summary

Daily Weather History Graph

Daily Weather History Graph

Search for Another Location

Airport or City:

Trip Planner

Search our weather history database for the weather conditions in past years. The results will help you decide how hot, cold, wet, or windy it might be!

Date:

Astronomy

Jun. 04, 2013 Rise Set
Actual Time 5:13 AM PDT 8:02 PM PDT
Civil Twilight 4:41 AM PDT 8:34 PM PDT
Nautical Twilight 4:01 AM PDT 9:14 PM PDT
Astronomical Twilight 3:16 AM PDT 10:00 PM PDT
Moon 2:44 AM PDT (6/4) 4:36 PM PDT (6/4)
Length of Visible Light 15h 52m
Length of Day
14h 48m
Waning Crescent, 13% of the Moon is Illuminated
Jun 4
Waning Crescent
Jun 8
New
Jun 16
First Quarter
Jun 23
Full
Jun 29
Last Quarter

Hourly Weather History & Observations

Time (PDT) Temp. Dew Point Humidity Pressure Visibility Wind Dir Wind Speed Gust Speed Precip Events Conditions
12:53 AM 54.0 °F 24.1 °F 31% 29.79 in 10.0 mi North - - N/A   Clear
1:53 AM 48.0 °F 21.0 °F 34% 29.82 in 10.0 mi North - - N/A   Scattered Clouds
2:53 AM 46.0 °F 24.1 °F 42% 29.81 in 10.0 mi North - - N/A   Scattered Clouds
3:53 AM 46.0 °F 23.0 °F 40% 29.81 in 10.0 mi North - - N/A   Partly Cloudy
4:53 AM 41.0 °F 24.1 °F 51% 29.85 in 10.0 mi North - - N/A   Clear
5:53 AM 39.9 °F 23.0 °F 51% 29.88 in 10.0 mi North - - N/A   Clear
6:53 AM 50.0 °F 27.0 °F 41% 29.85 in 10.0 mi North - - N/A   Clear
7:53 AM 59.0 °F 21.0 °F 23% 29.86 in 10.0 mi North - - N/A   Clear
8:53 AM 63.0 °F 24.1 °F 23% 29.87 in 10.0 mi North - - N/A   Clear
9:53 AM 68.0 °F 23.0 °F 18% 29.86 in 10.0 mi North - - N/A   Clear
10:53 AM 73.0 °F 19.9 °F 14% 29.83 in 10.0 mi North - - N/A   Clear
11:53 AM 77.0 °F 19.0 °F 11% 29.81 in 10.0 mi North - - N/A   Clear
12:53 PM 79.0 °F 17.1 °F 10% 29.81 in 10.0 mi North - - N/A   Clear
1:53 PM 82.0 °F 19.9 °F 10% 29.80 in 10.0 mi North - - N/A   Clear
2:53 PM 84.0 °F 19.9 °F 9% 29.79 in 10.0 mi North - - N/A   Clear
3:53 PM 82.0 °F 17.1 °F 9% 29.78 in 10.0 mi North - - N/A   Clear
4:53 PM 82.9 °F 18.0 °F 9% 29.78 in 10.0 mi North - - N/A   Clear
5:53 PM 82.0 °F 18.0 °F 9% 29.80 in 10.0 mi North - - N/A   Clear
6:53 PM 80.1 °F 19.9 °F 11% 29.78 in 10.0 mi North - - N/A   Clear
7:53 PM 72.0 °F 19.9 °F 14% 29.79 in 10.0 mi North - - N/A   Clear
8:53 PM 64.9 °F 21.0 °F 19% 29.83 in 10.0 mi North - - N/A   Clear
9:53 PM 64.0 °F 23.0 °F 21% 29.85 in 10.0 mi North - - N/A   Clear
10:53 PM 62.1 °F 24.1 °F 23% 29.86 in 10.0 mi North - - N/A   Clear
11:53 PM 55.9 °F 25.0 °F 30% 29.88 in 10.0 mi North - - N/A   Clear